This is the latest recevied weather packets stored in our database for station/object SQ6IUS-13. If no packets are shown the sender has not sent any weather packets the latest 10 day(s).
| Time | Temp. | Humidity | Pressure | Rain* | Wind** | Luminosity | Snow |
|---|---|---|---|---|---|---|---|
| 1777666402 | 9.44° C | 100% | 1026 hPa | - | - | - | - |
| 1777666385 | 9.44° C | 100% | 1026 hPa | - | - | - | - |
| 1777665485 | 10° C | 100% | 1026 hPa | - | - | - | - |
| 1777664585 | 10.56° C | 100% | 1025.9 hPa | - | - | - | - |
| 1777663685 | 11.11° C | 100% | 1025.9 hPa | - | - | - | - |
| 1777662785 | 11.67° C | 100% | 1025.9 hPa | - | - | - | - |
| 1777661885 | 13.33° C | 100% | 1025.8 hPa | - | - | - | - |
| 1777660985 | 14.44° C | 71% | 1025.7 hPa | - | - | - | - |
| 1777660085 | 16.11° C | 52% | 1025.6 hPa | - | - | - | - |
| 1777659185 | 17.22° C | 43% | 1025.4 hPa | - | - | - | - |
| 1777657384 | 21.67° C | 36% | 1025.2 hPa | - | - | - | - |
| 1777656484 | 23.33° C | 35% | 1025.1 hPa | - | - | - | - |
| 1777655584 | 22.78° C | 35% | 1025 hPa | - | - | - | - |
| 1777654684 | 22.22° C | 34% | 1025 hPa | - | - | - | - |
| 1777653784 | 25° C | 30% | 1025 hPa | - | - | - | - |
| 1777652884 | 25.56° C | 30% | 1025.1 hPa | - | - | - | - |
| 1777651088 | 26.67° C | 28% | 1025.2 hPa | - | - | - | - |
| 1777650184 | 24.44° C | 30% | 1025.3 hPa | - | - | - | - |
| 1777649289 | 26.11° C | 27% | 1025.3 hPa | - | - | - | - |
| 1777648386 | 28.33° C | 25% | 1025.4 hPa | - | - | - | - |
| 1777647487 | 30.56° C | 24% | 1025.5 hPa | - | - | - | - |
| 1777646652 | 28.33° C | 25% | 1025.7 hPa | - | - | - | - |
| 1777645753 | 29.44° C | 25% | 1025.6 hPa | - | - | - | - |
| 1777644854 | 28.89° C | 25% | 1025.8 hPa | - | - | - | - |
| 1777643955 | 26.67° C | 28% | 1025.8 hPa | - | - | - | - |
* Rain since midnight (hover to see other rain measurements)
** Current wind speed in m/s (hover to see current wind gust speed)